Regional Weather Roundup
Issued by NWS

Home | Current Version | Previous Version | Text Only | Print | Product List | Glossary On
Versions: 1 2 3 4 5 6 7 8 9 10 11 12 13 14 15 16 17 18 19 20 21 22 23 24 25 26 27 28 29 30 31 32 33 34 35 36 37 38 39 40 41 42 43 44 45 46 47 48 49 50
000
ASUS42 KFFC 250603
RWRGA
WEATHER ROUNDUP FOR GEORGIA
NATIONAL WEATHER SERVICE PEACHTREE CITY GA
200 AM EDT MON MAY 25 2015

NOTE: "FAIR" INDICATES FEW OR NO CLOUDS BELOW 12,000 FEET WITH NO
SIGNIFICANT WEATHER AND/OR OBSTRUCTIONS TO VISIBILITY.

* = USE WITH CAUTION. THE STATIONS MARKED WITH AN ASTERISK MAY NOT
REPORT WEATHER SUCH AS PRECIPITATION, FOG, OR THUNDER AND ARE NOT
QUALITY CONTROLLED BY NWS.

THE REMARK "TC" DENOTES TEMPERATURE READING IN DEGREES CELSIUS.

GAZ001>058-250700-
NORTH GEORGIA

CITY           SKY/WX    TMP DP  RH WIND       PRES   REMARKS
ATLANTA        PTCLDY    70  57  63 SE7       30.25F
6HR MIN TEMP:  70; 6HR MAX TEMP:  80;

ATHENS         CLEAR     65  58  78 CALM      30.28S
6HR MIN TEMP:  65; 6HR MAX TEMP:  78;

CHAMBLEE       CLEAR     69  58  67 SE8       30.26S
6HR MIN TEMP:  69; 6HR MAX TEMP:  78;

PEACHTREE CITY CLEAR     68  57  68 SE6       30.25F
6HR MIN TEMP:  65; 6HR MAX TEMP:  81;

ROME           CLEAR     69  58  67 SE5       30.21S
6HR MIN TEMP:  69; 6HR MAX TEMP:  80;

WEST ATLANTA   CLEAR     71  56  58 SE7       30.25S
6HR MIN TEMP:  71; 6HR MAX TEMP:  81;

GAINESVILLE    CLEAR     65  56  72 E6        30.30S
6HR MIN TEMP:  65; 6HR MAX TEMP:  77;

CARTERSVILLE   CLEAR     70  56  61 SE7       30.24S
6HR MIN TEMP:  68; 6HR MAX TEMP:  79;



CITY           SKY/WX    TMP DP  RH WIND       PRES   REMARKS
DALTON*        CLEAR     70  57  64 SE7       30.22F
BLAIRSVILLE*     N/A     67  29  24 S6        30.30S
$$

GAZ059>098-102>109-250700-
CENTRAL GEORGIA

CITY           SKY/WX    TMP DP  RH WIND       PRES   REMARKS
AUGUSTA-BUSH   CLEAR     62  60  93 CALM      30.28F
6HR MIN TEMP:  62; 6HR MAX TEMP:  78;

AUGUSTA-DANIEL CLEAR     70  60  70 E6        30.29F
6HR MIN TEMP:  70; 6HR MAX TEMP:  81;

COLUMBUS       CLEAR     72  58  61 SE6       30.22R
6HR MIN TEMP:  72; 6HR MAX TEMP:  82;

MACON          CLEAR     67  62  84 SE6       30.25S
6HR MIN TEMP:  67; 6HR MAX TEMP:  81;



CITY           SKY/WX    TMP DP  RH WIND       PRES   REMARKS
LAGRANGE*      CLEAR     75  64  70 SE9       30.22S
SYLVANIA*      CLEAR     67  64  91 E3        30.28F
MILLEDGEVILLE* CLEAR     70  64  83 CALM      30.27S
$$

GAZ099>101-110>166-250700-
SOUTH GEORGIA

CITY           SKY/WX    TMP DP  RH WIND       PRES   REMARKS
SAVANNAH       CLOUDY    75  64  68 SE13      30.26F
6HR MIN TEMP:  71; 6HR MAX TEMP:  76;

VALDOSTA       NOT AVBL
ALMA           CLOUDY    69  66  90 CALM      30.24S
6HR MIN TEMP:  69; 6HR MAX TEMP:  78;

FT STEWART     CLOUDY    72  66  83 CALM      30.23F
ALBANY         CLEAR     73  64  73 SE10      30.23F
BRUNSWICK        N/A     77  68  73 E9        30.24F


CITY           SKY/WX    TMP DP  RH WIND       PRES   REMARKS
BAINBRIDGE*    PTCLDY    77  66  69 E9        30.20S
MOULTRIE*      CLEAR     72  64  78 E3        30.23S
VIDALIA*       CLOUDY    70  64  83 E3        30.25F
WAYCROSS*      CLEAR     70  69  97 E3        30.23F
DOUGLAS*       MOCLDY    72  68  88 CALM      30.25F
$$



USA.gov is the U.S. government's official web portal to all federal, state and local government web resources and services.